METAR Formatted Surface Weather Observation
Issued by NWS

Home | Current Version | Previous Version | Text Only | Print | Product List | Glossary On
Versions: 1 2 3 4 5 6 7 8 9 10 11 12 13 14 15 16 17 18 19 20 21 22 23 24
000
SAUS45 KSLC 210726
MTRU16
METAR KU16 210658Z AUTO 05010KT 10SM CLR 27/02 A2999 RMK
 AO2 SLP778 T02720017 $



USA.gov is the U.S. government's official web portal to all federal, state and local government web resources and services.